Other Public Products
Issued by NWS Charleston, SC

Current Version | Previous Version | Graphics & Text | Print | Product List | Glossary On
Versions: 1 2 3 4 5 6 7 8 9 10 11 12 13 14 15 16 17 18 19 20 21 22 23 24 25 26 27 28 29 30 31 32 33 34 35 36 37 38 39 40 41 42 43 44 45 46 47 48 49 50
000 FPUS82 KCHS 211440 OPUCHS TEST...KCHS/KSAV Gateway Observations...TEST National Weather Service Charleston SC 1000 AM EDT THU SEP 21 2017 NOTE: "fair" indicates few or no clouds below 12,000 feet with no significant weather and/or obstructions to visibility. SCZ050-WAZ558-NCZ071-TXZ119-213-PAZ071-DCZ001-FLZ074-172-MI076- NYZ176-178-MAZ016-IL014-TNZ027-NJZ106-GAZ044-MD014-211500- ...Gateway Observations for Charleston International... CITY SKY/WX TMP DP RH WIND PRES REMARKS Chas Airport MOSUNNY 82 72 71 NW5 30.05S Seattle CLOUDY 50 49 96 S6 29.90R Charlotte MOSUNNY 78 67 68 N5 30.10R Dallas DFW PTSUNNY 81 74 79 S12 29.94S Dallas Love PTSUNNY 81 73 76 S13 29.96R Philladelphia MOSUNNY 80 64 58 N8 30.04S Wash National MOSUNNY 78 65 63 N5 30.07S Baltimore MOSUNNY 78 65 63 N3 30.06S Miami MOSUNNY 88 74 63 N3 29.97R HX 96 Detroit PTSUNNY 75 70 84 S5 30.09R Newark PTSUNNY 76 63 64 N13 30.02R Laguardia PTSUNNY 75 65 70 N14 30.01R J F K CLOUDY 77 64 64 N17G28 30.01R Boston Logan CLOUDY 68 59 73 N26G35 30.00R Ft. Lauderdale MOSUNNY 86 78 77 NW3 29.96R HX 98 Chicago O`Hare PTSUNNY 79 68 69 S5 30.01R Chicago Midway PTSUNNY 78 69 73 S7 30.02R Houston Bush MOSUNNY 81 78 91 E5 29.98R Houston Hobby MOSUNNY 83 77 82 SE3 29.97R HX 92 Nashville MOSUNNY 78 70 76 CALM 30.11R Atlanta MOSUNNY 80 67 64 NE3 30.10R $$ GAZ044-118-TXZ119-213-NCZ071-DCZ001-MDZ014-506-PAZ021-071-NJZ106- NYZ176-178-MAZ106-OHZ011-021-055-MIZ076-KYZ091-ILZ014-INZ047- MNZ060-ONZ431-211500- ...Gateway Observations for Savannah International... CITY SKY/WX TMP DP RH WIND PRES REMARKS Savannah Arpt MOSUNNY 81 72 74 W3 30.06S Atlanta MOSUNNY 80 67 64 NE3 30.10R Charlotte MOSUNNY 78 67 68 N5 30.10R Dallas DFW PTSUNNY 81 74 79 S12 29.94S Houston Bush MOSUNNY 81 78 91 E5 29.98R Wash National MOSUNNY 78 65 63 N5 30.07S Wash Dulles MOSUNNY 75 64 68 NW7 30.08S Baltimore MOSUNNY 78 65 63 N3 30.06S Philadelphia MOSUNNY 80 64 58 N8 30.04S Newark PTSUNNY 76 63 64 N13 30.02R Laguardia PTSUNNY 75 65 70 N14 30.01R J F K CLOUDY 77 64 64 N17G28 30.01R Boston CLOUDY 68 59 73 N26G35 30.00R Pittsburg SUNNY 72 66 81 CALM 30.14R Akron MOSUNNY 76 66 71 CALM 30.14R Cleveland SUNNY 79 66 64 S3 30.13R Cincinnati SUNNY 76 72 87 S5 30.12R Columbus SUNNY 71 69 92 CALM 30.11F Detroit PTSUNNY 75 70 84 S5 30.09R Chicago O`Hare PTSUNNY 79 68 69 S5 30.01R Minneapolis SUNNY 62 53 72 E15 29.98F Indianapolis PTSUNNY 76 71 85 S5 30.10R Toronto Canada MOSUNNY 73 64 73 VRB3 30.13R $$

USA.gov is the U.S. government's official web portal to all federal, state and local government web resources and services.